Flag for Cabo Verde Weather past 2 weeks in Santa Maria, Cabo Verde

Now
75 °F

Scattered clouds.


Feels Like: 76 °F
Forecast: 72 / 85 °F
Wind: 20 mph from Northeast

Location: Sal

Current Time: Jul 5, 2015 at 8:44:54 AM

Latest Report: Jul 5, 2015 at 8:00 AM


Visibility: N/A

Pressure: 29.92 "Hg

Humidity: 78%

Dew point: 68 °F

Location of Santa MariaLocation

Historic Weather in Santa Maria — Graph

°F

Santa Maria temperature yesterday

Maximum temperature yesterday: 82 °F (at 1:00 PM)
Minimum temperature yesterday: 72 °F (at 5:00 AM)
Average temperature yesterday: 76 °F

Past Weeks' High & Low Weather Summary

 TemperatureHumidityPressure
High82 °F (Jun 22, 2:00 PM)89% (Jul 3, 10:00 PM)30.15 "Hg (Jul 3, 10:00 PM)
Low70 °F (Jun 20, 7:00 AM)54% (Jun 27, 12:00 PM)29.89 "Hg (Jul 5, 3:00 AM)
Average75 °F74%30.03 "Hg
* Reported Jun 20 7:00 AM — Jul 5 7:00 AM, Santa Maria, Weather by CustomWeather, © 2015

Note: Actual official high and low records may vary slightly from our data, if they occured in-between our weather recording intervals... More about our weather records

Advertising

Santa Maria weather history for previous 24 hours

 ConditionsComfort  
Time TempWeatherWind HumidityBarometerVisibility
7:00 AM
Sun, Jul 5
72 °FScattered clouds.17 mph88%29.92 "HgN/A
6:00 AM72 °FScattered clouds.16 mph88%29.92 "HgN/A
5:00 AM72 °FScattered clouds.16 mph88%29.92 "HgN/A
4:00 AM72 °FPassing clouds.17 mph88%29.89 "HgN/A
3:00 AM72 °FPassing clouds.20 mph83%29.89 "HgN/A
2:00 AM72 °FPassing clouds.20 mph88%29.92 "HgN/A
1:00 AM73 °FPassing clouds.24 mph83%29.92 "HgN/A
12:00 AM73 °FPassing clouds.22 mph83%29.95 "HgN/A
11:00 PM
Sat, Jul 4
73 °FPassing clouds.26 mph83%29.92 "HgN/A
10:00 PM73 °FPassing clouds.22 mph83%29.95 "HgN/A
9:00 PM73 °FPassing clouds.22 mph83%29.95 "HgN/A
8:00 PM73 °FPassing clouds.23 mph83%29.92 "HgN/A
7:00 PM75 °FPassing clouds.23 mph74%29.92 "HgN/A
6:00 PM77 °FPassing clouds.26 mph74%29.92 "HgN/A
5:00 PM79 °FPassing clouds.23 mph70%29.95 "HgN/A
4:00 PM81 °FPassing clouds.23 mph66%29.95 "HgN/A
3:00 PM81 °FPassing clouds.21 mph62%29.98 "HgN/A
2:00 PM82 °FPassing clouds.22 mph58%29.98 "HgN/A
1:00 PM82 °FPassing clouds.20 mph58%30.01 "HgN/A
12:00 PM81 °FScattered clouds.17 mph62%30.01 "HgN/A
11:00 AM81 °FPassing clouds.16 mph62%30.04 "HgN/A
10:00 AM79 °FScattered clouds.16 mph70%30.01 "HgN/A
9:00 AM77 °FScattered clouds.16 mph74%30.01 "HgN/A
8:00 AM73 °FScattered clouds.13 mph83%30.01 "HgN/A
Weather by CustomWeather, © 2015

See weather overviewHow to use our weather pages